Topeka Forbes, KS

4:38 AM CDT on June 27, 2017 (GMT -0500)
Forbes

Weather History for KFOE - December, 2012

Change the Weather History Date:

Thursday, December 6, 2012

  Actual Average Record
Temperature  
Mean Temperature 48 °F -  
Max Temperature 54 °F 42 °F 70 °F (1963)
Min Temperature 43 °F 24 °F -4 °F (1950)
Degree Days  
Heating Degree Days 16    
Moisture  
Dew Point 38 °F    
Average Humidity 69    
Maximum Humidity 76    
Minimum Humidity 56    
Precipitation  
Precipitation 0.00 in - - ()
Sea Level Pressure  
Sea Level Pressure 29.91 in    
Wind  
Wind Speed 7 mph (ENE)    
Max Wind Speed 10 mph    
Max Gust Speed -    
Visibility 10 miles    
Events      
Averages and records for this station are not official NWS values.
T = Trace of Precipitation, MM = Missing Value Source: NWS Daily Summary

Daily Weather History Graph

Daily Weather History Graph

Search for Another Location

Airport or City:

Trip Planner

Search our weather history database for the weather conditions in past years. The results will help you decide how hot, cold, wet, or windy it might be!

Date:

Astronomy

Dec. 06, 2012 Rise Set
Actual Time 7:27 AM CST 5:00 PM CST
Civil Twilight 6:57 AM CST 5:29 PM CST
Nautical Twilight 6:24 AM CST 6:03 PM CST
Astronomical Twilight 5:52 AM CST 6:35 PM CST
Moon No Moon Rise 12:23 PM CST (12/6)
Length of Visible Light 10h 32m
Length of Day
9h 32m
Waning Gibbous, 49% of the Moon is Illuminated
Dec 6
Waning Gibbous
Dec 13
New
Dec 19
First Quarter
Dec 28
Full
Jan 4
Last Quarter

Hourly Weather History & Observations

Time (CST) Temp. Windchill Dew Point Humidity Pressure Visibility Wind Dir Wind Speed Gust Speed Precip Events Conditions
12:53 AM 45.0 °F 39.7 °F 30.0 °F 56% 29.97 in 10.0 mi SSE 10.4 mph - N/A   Clear
1:53 AM 43.0 °F 37.7 °F 30.0 °F 60% 29.96 in 10.0 mi SSE 9.2 mph - N/A   Clear
2:53 AM 43.0 °F 38.8 °F 30.9 °F 62% 29.96 in 10.0 mi SSE 6.9 mph - N/A   Clear
3:53 AM 43.0 °F 38.2 °F 32.0 °F 65% 29.94 in 10.0 mi SSE 8.1 mph - N/A   Clear
4:53 AM 43.0 °F 37.2 °F 33.1 °F 68% 29.91 in 10.0 mi SSE 10.4 mph - N/A   Clear
5:53 AM 44.1 °F 38.6 °F 33.1 °F 65% 29.91 in 10.0 mi South 10.4 mph - N/A   Clear
6:53 AM 43.0 °F 37.2 °F 34.0 °F 71% 29.92 in 10.0 mi SSE 10.4 mph - N/A   Clear
7:53 AM 43.0 °F 40.3 °F 34.0 °F 71% 29.94 in 10.0 mi SE 4.6 mph - N/A   Clear
8:53 AM 45.0 °F 41.2 °F 35.1 °F 68% 29.93 in 10.0 mi SSE 6.9 mph - N/A   Clear
9:53 AM 46.0 °F 41.9 °F 36.0 °F 68% 29.94 in 10.0 mi South 8.1 mph - N/A   Clear
10:53 AM 46.9 °F - 37.9 °F 71% 29.91 in 10.0 mi South 8.1 mph - N/A   Mostly Cloudy
11:53 AM 48.9 °F - 39.0 °F 69% 29.91 in 10.0 mi Calm Calm - N/A   Scattered Clouds
12:53 PM 52.0 °F - 41.0 °F 66% 29.89 in 10.0 mi Calm Calm - N/A   Mostly Cloudy
1:21 PM 51.8 °F - 41.0 °F 67% 29.87 in 10.0 mi Calm Calm - N/A   Partly Cloudy
1:53 PM 53.1 °F - 42.1 °F 66% 29.86 in 10.0 mi East 3.5 mph - N/A   Clear
2:53 PM 54.0 °F - 42.1 °F 64% 29.86 in 10.0 mi NNE 5.8 mph - N/A   Clear
3:53 PM 53.1 °F - 41.0 °F 64% 29.88 in 10.0 mi NNE 4.6 mph - N/A   Partly Cloudy
4:04 PM 53.6 °F - 41.0 °F 62% 29.88 in 10.0 mi NE 5.8 mph - N/A   Mostly Cloudy
4:31 PM 51.8 °F - 41.0 °F 67% 29.88 in 10.0 mi NNE 5.8 mph - N/A   Scattered Clouds
4:53 PM 50.0 °F - 41.0 °F 71% 29.89 in 10.0 mi North 6.9 mph - N/A   Partly Cloudy
5:53 PM 50.0 °F - 41.0 °F 71% 29.91 in 10.0 mi North 4.6 mph - N/A   Overcast
6:06 PM 50.0 °F - 41.0 °F 71% 29.90 in 10.0 mi North 4.6 mph - N/A   Overcast
6:40 PM 50.0 °F - 41.0 °F 71% 29.90 in 10.0 mi NNE 4.6 mph - N/A   Overcast
6:53 PM 48.9 °F - 41.0 °F 74% 29.91 in 10.0 mi NE 3.5 mph - N/A   Overcast
7:29 PM 48.2 °F - 41.0 °F 76% 29.92 in 10.0 mi North 4.6 mph - N/A   Overcast
7:53 PM 48.9 °F - 41.0 °F 74% 29.92 in 10.0 mi NNE 4.6 mph - N/A   Overcast
8:06 PM 48.2 °F - 41.0 °F 76% 29.91 in 10.0 mi NNE 6.9 mph - N/A   Mostly Cloudy
8:43 PM 48.2 °F - 39.2 °F 71% 29.91 in 10.0 mi North 5.8 mph - N/A   Mostly Cloudy
8:53 PM 48.0 °F - 39.9 °F 74% 29.92 in 10.0 mi North 5.8 mph - N/A   Overcast
9:53 PM 46.9 °F - 39.0 °F 74% 29.94 in 10.0 mi North 10.4 mph - N/A   Overcast
10:53 PM 46.0 °F 41.9 °F 37.9 °F 73% 29.93 in 10.0 mi North 8.1 mph - N/A   Overcast
11:53 PM 46.0 °F 42.5 °F 37.0 °F 71% 29.94 in 10.0 mi North 6.9 mph - N/A   Overcast